Weather History for KHPN - July, 2012

Change the Weather History Date:

Sunday, July 8, 2012

  Actual Average Record
Temperature  
Mean Temperature 80 °F -  
Max Temperature 90 °F 79 °F 95 °F (1988)
Min Temperature 72 °F 61 °F 52 °F (1979)
Cooling Degree Days 16    
Growing Degree Days 30 (Base 50)    
Moisture  
Dew Point 62 °F    
Average Humidity 56    
Maximum Humidity 82    
Minimum Humidity 35    
Precipitation  
Precipitation 0.00 in - - ()
Sea Level Pressure  
Sea Level Pressure 29.83 in    
Wind  
Wind Speed 6 mph (NW)    
Max Wind Speed 12 mph    
Max Gust Speed -    
Visibility 10 miles    
Events Rain , Thunderstorm    
Averages and records for this station are not official NWS values.
T = Trace of Precipitation, MM = Missing Value Source: NWS Daily Summary

Daily Weather History Graph

Daily Weather History Graph

Search for Another Location

Airport or City:

Trip Planner

Search our weather history database for the weather conditions in past years. The results will help you decide how hot, cold, wet, or windy it might be!

Date:

Astronomy

Jul. 08, 2012 Rise Set
Actual Time 5:30 AM EDT 8:29 PM EDT
Civil Twilight 4:57 AM EDT 9:02 PM EDT
Nautical Twilight 4:15 AM EDT 9:43 PM EDT
Astronomical Twilight 3:26 AM EDT 10:32 PM EDT
Moon 11:11 PM EDT (7/8) 10:58 AM EDT (7/8)
Length of Visible Light 16h 04m
Length of Day
14h 58m
Waning Gibbous, 73% of the Moon is Illuminated
Jul 8
Waning Gibbous
Jul 10
Last Quarter
Jul 19
New
Jul 26
First Quarter
Aug 1
Full

Hourly Weather History & Observations

Time (EDT) Temp. Heat Index Dew Point Humidity Pressure Visibility Wind Dir Wind Speed Gust Speed Precip Events Conditions
12:09 AM 78.8 °F - 66.2 °F 65% 29.83 in 10.0 mi NNW 4.6 mph - 0.00 in Rain , Thunderstorm Light Thunderstorms and Rain
12:56 AM 78.1 °F - 68.0 °F 71% 29.82 in 10.0 mi NW 5.8 mph - 0.00 in Rain , Thunderstorm Light Thunderstorms and Rain
1:56 AM 77.0 °F - 68.0 °F 74% 29.80 in 10.0 mi NW 4.6 mph - 0.00 in   Overcast
2:56 AM 73.9 °F - 68.0 °F 82% 29.80 in 10.0 mi North 3.5 mph - N/A   Mostly Cloudy
3:56 AM 73.9 °F - 66.9 °F 79% 29.81 in 10.0 mi NNW 5.8 mph - N/A   Partly Cloudy
4:56 AM 72.0 °F - 64.0 °F 76% 29.83 in 10.0 mi NNW 6.9 mph - N/A   Clear
5:56 AM 72.0 °F - 64.0 °F 76% 29.83 in 10.0 mi North 8.1 mph - N/A   Clear
6:56 AM 73.0 °F - 64.0 °F 73% 29.84 in 10.0 mi NNW 10.4 mph - N/A   Clear
7:56 AM 75.9 °F - 64.0 °F 67% 29.86 in 10.0 mi North 9.2 mph - N/A   Clear
8:56 AM 79.0 °F - 63.0 °F 58% 29.85 in 10.0 mi NNW 11.5 mph - N/A   Clear
9:56 AM 82.0 °F 83.1 °F 63.0 °F 52% 29.84 in 10.0 mi NNW 8.1 mph - N/A   Partly Cloudy
10:56 AM 84.0 °F 84.4 °F 61.0 °F 46% 29.84 in 10.0 mi Variable 5.8 mph - N/A   Clear
11:56 AM 84.9 °F 84.4 °F 59.0 °F 41% 29.85 in 10.0 mi Calm Calm - N/A   Scattered Clouds
12:56 PM 88.0 °F 87.6 °F 60.1 °F 39% 29.84 in 10.0 mi Variable 5.8 mph - N/A   Scattered Clouds
1:56 PM 88.0 °F 86.9 °F 57.9 °F 36% 29.82 in 10.0 mi Variable 4.6 mph - N/A   Scattered Clouds
2:56 PM 89.1 °F 88.0 °F 57.9 °F 35% 29.82 in 10.0 mi WNW 6.9 mph - N/A   Scattered Clouds
3:56 PM 87.1 °F 86.1 °F 57.9 °F 37% 29.81 in 10.0 mi West 4.6 mph - N/A   Scattered Clouds
4:56 PM 88.0 °F 86.9 °F 57.9 °F 36% 29.80 in 10.0 mi West 8.1 mph - N/A   Scattered Clouds
5:56 PM 87.1 °F 86.5 °F 59.0 °F 39% 29.79 in 10.0 mi WSW 5.8 mph - N/A   Partly Cloudy
6:56 PM 84.9 °F 85.4 °F 62.1 °F 46% 29.80 in 10.0 mi SSW 3.5 mph - N/A   Scattered Clouds
7:56 PM 82.0 °F 83.1 °F 63.0 °F 52% 29.81 in 10.0 mi South 4.6 mph - N/A   Clear
8:56 PM 77.0 °F - 63.0 °F 62% 29.82 in 10.0 mi Calm Calm - N/A   Scattered Clouds
9:56 PM 77.0 °F - 63.0 °F 62% 29.84 in 10.0 mi Calm Calm - N/A   Mostly Cloudy
10:56 PM 79.0 °F - 60.1 °F 52% 29.86 in 10.0 mi North 8.1 mph - N/A   Mostly Cloudy
11:56 PM 77.0 °F - 57.9 °F 52% 29.87 in 10.0 mi North 10.4 mph - N/A   Scattered Clouds